This is the latest recevied weather packets stored in our database for station/object YF9UAG-17. If no packets are shown the sender has not sent any weather packets the latest 10 day(s).
| Time | Temp. | Humidity | Pressure | Rain* | Wind** | Luminosity | Snow |
|---|---|---|---|---|---|---|---|
| 1787406122 | 31.11° C | 51% | 1034.1 hPa | - | - | - | - |
| 1787405519 | 30.56° C | 54% | 1034.1 hPa | - | - | - | - |
| 1787404915 | 30° C | 54% | 1034 hPa | - | - | - | - |
| 1787404312 | 30.56° C | 54% | 1034.1 hPa | - | - | - | - |
| 1787403709 | 30.56° C | 54% | 1034 hPa | - | - | - | - |
| 1787403106 | 30.56° C | 53% | 1034 hPa | - | - | - | - |
| 1787402502 | 30.56° C | 53% | 1033.8 hPa | - | - | - | - |
| 1787401899 | 30.56° C | 53% | 1033.5 hPa | - | - | - | - |
| 1787401296 | 30.56° C | 53% | 1033.4 hPa | - | - | - | - |
| 1787400693 | 30.56° C | 52% | 1033.3 hPa | - | - | - | - |
| 1787400089 | 30.56° C | 52% | 1033.2 hPa | - | - | - | - |
| 1787399486 | 30.56° C | 52% | 1033.1 hPa | - | - | - | - |
| 1787398883 | 30.56° C | 51% | 1033.1 hPa | - | - | - | - |
| 1787398280 | 31.11° C | 50% | 1032.9 hPa | - | - | - | - |
| 1787397677 | 31.11° C | 51% | 1032.8 hPa | - | - | - | - |
| 1787397074 | 31.11° C | 52% | 1032.6 hPa | - | - | - | - |
| 1787396471 | 31.11° C | 52% | 1032.4 hPa | - | - | - | - |
| 1787395868 | 31.67° C | 51% | 1032.3 hPa | - | - | - | - |
| 1787395265 | 30.56° C | 53% | 1032.2 hPa | - | - | - | - |
| 1787394661 | 30.56° C | 53% | 1032 hPa | - | - | - | - |
| 1787394058 | 30.56° C | 52% | 1031.9 hPa | - | - | - | - |
| 1787393455 | 30.56° C | 53% | 1031.8 hPa | - | - | - | - |
| 1787392852 | 30.56° C | 53% | 1031.6 hPa | - | - | - | - |
| 1787392249 | 30.56° C | 53% | 1031.5 hPa | - | - | - | - |
| 1787391646 | 30.56° C | 54% | 1031.3 hPa | - | - | - | - |
* Rain since midnight (hover to see other rain measurements)
** Current wind speed in m/s (hover to see current wind gust speed)